Project,Study,Ord_Occ,Event_Num,Cast_ID,Date_Time_UTC,Date_Time_PST,Lat_Dec,Lon_Dec,Sta_ID,Line,Sta,Depth,Pressure,PrQ,Temp1,Temp1Q,Temp2,Temp2Q,TempAve,Salt1,Salt1Q,Salt1_Corr,Salt2,Salt2Q,Salt2_Corr,SaltAve_Corr,Ox1,Ox1Q,Ox1_CruiseCorr,Ox1_StaCorr,Ox2,Ox2Q,Ox2_CruiseCorr,Ox2_StaCorr,OxAve_StaCorr,Ox1uM,Ox1uM_CruiseCorr,Ox1uM_StaCorr,Ox2uM,Ox2uM_CruiseCorr,Ox2uM_StaCorr,OxAveuM_StaCorr,FluorV,FluorQ,EstChl_CruiseCorr,EstChl_StaCorr,ISUSV,ISUSQ,EstNO3_CruiseCorr,EstNO3_StaCorr,SigThetaTS1,SigThetaTS1Q,SigThetaTS2,SigThetaTS2Q,BAT,XMiss,TransQ,pH,pHQ,SPAR,SPARQ,PAR,PARQ,PoT1,PoT2,DynHt,SVA,OxSat1,OxSat2,BTL_Depth,BTL_Temp,SaltB,OxB,OxBuM,Chl-a,Phaeo,NO3,NO2,NH4,PO4,SIL
CalCOFI,2105SH,035,,2105_035d,12-May-2021 05:14:22,11-May-2021 21:14:22,33.47755,-122.54207,080.0 080.0,080.0,080.0,3.000,3.021,,14.1421,,14.1426,,14.1424,33.0652,,33.0664,33.0647,,33.0666,33.0665,5.7228,,6.0510,5.9292,5.7952,,6.0621,5.9275,5.9284,249.427,263.2498,216.6332,252.586,274.5104,216.5280,216.5806,0.1719,,1.0186,0.4782,2.5995,,0.8491,,24.6628,,24.6623,,,,,,,,,,,14.1417,14.1422,0.0002,326.962,97.644,98.881,3,14.139,33.0788,6.056,263.95,0.404,0.123,0.23,0.058,0.00,0.36,1.31
CalCOFI,2105SH,035,,2105_035d,12-May-2021 05:14:30,11-May-2021 21:14:30,33.47754,-122.54208,080.0 080.0,080.0,080.0,4.000,4.029,,14.1409,,14.1413,,14.1411,33.0653,,33.0665,33.0648,,33.0667,33.0666,5.7392,,6.0682,5.9458,5.7920,,6.0588,5.9243,5.9351,250.144,263.9993,217.1929,252.445,275.2847,216.4191,216.8060,0.1747,,1.0377,0.4874,2.5999,,0.8491,,24.6631,,24.6627,,,,,,,,,,,14.1403,14.1408,0.0044,326.958,97.922,98.823,,,,,,,,,,,,
CalCOFI,2105SH,035,,2105_035d,12-May-2021 05:14:33,11-May-2021 21:14:33,33.47754,-122.54208,080.0 080.0,080.0,080.0,5.000,5.036,,14.1415,,14.1418,,14.1417,33.0654,,33.0666,33.0649,,33.0668,33.0667,5.7209,,6.0490,5.9273,5.7936,,6.0604,5.9259,5.9266,249.347,263.1662,216.5708,252.516,274.4240,216.4739,216.5224,0.1709,,1.0118,0.4749,2.5997,,0.8491,,24.6631,,24.6627,,,,,,,,,,,14.1408,14.1410,0.0077,326.989,97.611,98.852,,,,,,,,,,,,
CalCOFI,2105SH,035,,2105_035d,12-May-2021 05:14:36,11-May-2021 21:14:36,33.47753,-122.54210,080.0 080.0,080.0,080.0,6.000,6.043,,14.1428,,14.1435,,14.1432,33.0653,,33.0665,33.0648,,33.0667,33.0666,5.7294,,6.0579,5.9359,5.7896,,6.0563,5.9219,5.9289,249.718,263.5540,216.8604,252.339,274.8246,216.3373,216.5989,0.1648,,0.9700,0.4547,2.5992,,0.8491,,24.6629,,24.6623,,,,,,,,,,,14.1419,14.1426,0.0110,327.043,97.759,98.786,,,,,,,,,,,,
CalCOFI,2105SH,035,,2105_035d,12-May-2021 05:14:37,11-May-2021 21:14:37,33.47752,-122.54210,080.0 080.0,080.0,080.0,7.000,7.050,,14.1410,,14.1420,,14.1415,33.0655,,33.0667,33.0652,,33.0671,33.0669,5.7176,,6.0456,5.9240,5.7925,,6.0593,5.9248,5.9244,249.200,263.0125,216.4560,252.467,274.2652,216.4361,216.4461,0.1628,,0.9563,0.4481,2.5990,,0.8491,,24.6634,,24.6629,,,,,,,,,,,14.1400,14.1410,0.0143,327.020,97.552,98.833,,,,,,,,,,,,
CalCOFI,2105SH,035,,2105_035d,12-May-2021 05:14:38,11-May-2021 21:14:38,33.47752,-122.54212,080.0 080.0,080.0,080.0,8.000,8.057,,14.1429,,14.1437,,14.1433,33.0654,,33.0666,33.0650,,33.0669,33.0668,5.7112,,6.0389,5.9175,5.7930,,6.0598,5.9253,5.9214,248.923,262.7229,216.2397,252.490,273.9660,216.4539,216.3468,0.1674,,0.9879,0.4633,2.5989,,0.8491,,24.6630,,24.6625,,,,,,,,,,,14.1418,14.1426,0.0176,327.088,97.448,98.846,,,,,,,,,,,,
CalCOFI,2105SH,035,,2105_035d,12-May-2021 05:14:40,11-May-2021 21:14:40,33.47752,-122.54212,080.0 080.0,080.0,080.0,9.000,9.064,,14.1428,,14.1436,,14.1432,33.0655,,33.0667,33.0650,,33.0669,33.0668,5.7053,,6.0327,5.9116,5.7908,,6.0575,5.9231,5.9174,248.667,262.4553,216.0399,252.392,273.6896,216.3782,216.2091,0.1705,,1.0091,0.4735,2.5986,,0.8491,,24.6631,,24.6625,,,,,,,,,,,14.1416,14.1423,0.0209,327.106,97.347,98.807,,,,,,,,,,,,
CalCOFI,2105SH,035,,2105_035d,12-May-2021 05:14:44,11-May-2021 21:14:44,33.47753,-122.54212,080.0 080.0,080.0,080.0,10.000,10.072,,14.1426,,14.1433,,14.1430,33.0654,,33.0666,33.0649,,33.0668,33.0667,5.7105,,6.0381,5.9168,5.7931,,6.0599,5.9254,5.9211,248.893,262.6915,216.2163,252.495,273.9336,216.4577,216.3370,0.1600,,0.9370,0.4388,2.5982,,0.8491,,24.6631,,24.6625,,,,,,,,,,,14.1411,14.1419,0.0242,327.134,97.436,98.847,10,14.167,,,262.60,0.448,0.148,0.46,0.063,0.00,0.38,1.46
CalCOFI,2105SH,035,,2105_035d,12-May-2021 05:14:45,11-May-2021 21:14:45,33.47752,-122.54214,080.0 080.0,080.0,080.0,11.000,11.079,,14.1407,,14.1418,,14.1413,33.0656,,33.0668,33.0650,,33.0669,33.0669,5.7485,,6.0779,5.9552,5.7983,,6.0653,5.9306,5.9429,250.548,264.4217,217.5083,252.718,275.7210,216.6298,217.0691,0.1533,,0.8908,0.4167,2.5981,,0.8491,,24.6636,,24.6630,,,,,,,,,,,14.1391,14.1402,0.0275,327.110,98.080,98.931,,,,,,,,,,,,
CalCOFI,2105SH,035,,2105_035d,12-May-2021 05:14:47,11-May-2021 21:14:47,33.47752,-122.54214,080.0 080.0,080.0,080.0,12.000,12.086,,14.1421,,14.1434,,14.1428,33.0655,,33.0667,33.0650,,33.0669,33.0668,5.7182,,6.0462,5.9246,5.7960,,6.0629,5.9283,5.9265,249.231,263.0449,216.4802,252.621,274.2987,216.5550,216.5176,0.1529,,0.8880,0.4154,2.5981,,0.8491,,24.6634,,24.6626,,,,,,,,,,,14.1404,14.1416,0.0308,327.167,97.567,98.896,,,,,,,,,,,,
CalCOFI,2105SH,035,,2105_035d,12-May-2021 05:14:48,11-May-2021 21:14:48,33.47752,-122.54214,080.0 080.0,080.0,080.0,13.000,13.093,,14.1425,,14.1435,,14.1430,33.0654,,33.0666,33.0649,,33.0668,33.0667,5.7166,,6.0445,5.9230,5.7967,,6.0636,5.9290,5.9260,249.161,262.9717,216.4255,252.651,274.2231,216.5781,216.5018,0.1544,,0.8984,0.4203,2.5980,,0.8491,,24.6632,,24.6626,,,,,,,,,,,14.1406,14.1416,0.0341,327.209,97.540,98.908,,,,,,,,,,,,
CalCOFI,2105SH,035,,2105_035d,12-May-2021 05:14:49,11-May-2021 21:14:49,33.47752,-122.54214,080.0 080.0,080.0,080.0,14.000,14.101,,14.1381,,14.1408,,14.1395,33.0658,,33.0670,33.0653,,33.0672,33.0671,5.7142,,6.0420,5.9205,5.7985,,6.0655,5.9308,5.9257,249.053,262.8588,216.3412,252.730,274.1064,216.6391,216.4902,0.1580,,0.9232,0.4322,2.5980,,0.8491,,24.6645,,24.6635,,,,,,,,,,,14.1361,14.1388,0.0374,327.118,97.490,98.934,,,,,,,,,,,,
CalCOFI,2105SH,035,,2105_035d,12-May-2021 05:14:51,11-May-2021 21:14:51,33.47752,-122.54214,080.0 080.0,080.0,080.0,15.000,15.108,,14.1202,,14.1238,,14.1220,33.0661,,33.0673,33.0653,,33.0672,33.0673,5.7096,,6.0372,5.9159,5.7980,,6.0650,5.9303,5.9231,248.853,262.6497,216.1851,252.706,273.8904,216.6206,216.4029,0.1645,,0.9680,0.4537,2.5978,,0.8491,,24.6684,,24.6671,,,,,,,,,,,14.1180,14.1217,0.0407,326.768,97.377,98.891,,,,,,,,,,,,
CalCOFI,2105SH,035,,2105_035d,12-May-2021 05:14:54,11-May-2021 21:14:54,33.47752,-122.54214,080.0 080.0,080.0,080.0,16.000,16.115,,14.1010,,14.1040,,14.1025,33.0648,,33.0660,33.0641,,33.0660,33.0660,5.7157,,6.0436,5.9221,5.7961,,6.0630,5.9284,5.9253,249.115,262.9236,216.3896,252.622,274.1734,216.5557,216.4727,0.1629,,0.9570,0.4484,2.5974,,0.8491,,24.6715,,24.6703,,,,,,,,,,,14.0987,14.1017,0.0440,326.507,97.441,98.818,,,,,,,,,,,,
CalCOFI,2105SH,035,,2105_035d,12-May-2021 05:14:56,11-May-2021 21:14:56,33.47750,-122.54216,080.0 080.0,080.0,080.0,17.000,17.122,,14.0961,,14.0967,,14.0964,33.0645,,33.0657,33.0638,,33.0657,33.0657,5.7215,,6.0496,5.9279,5.7925,,6.0593,5.9248,5.9264,249.369,263.1892,216.5879,252.463,274.4477,216.4330,216.5105,0.1645,,0.9680,0.4537,2.5969,,0.8491,,24.6723,,24.6716,,,,,,,,,,,14.0937,14.0943,0.0473,326.456,97.530,98.741,,,,,,,,,,,,
CalCOFI,2105SH,035,,2105_035d,12-May-2021 05:14:58,11-May-2021 21:14:58,33.47750,-122.54217,080.0 080.0,080.0,080.0,18.000,18.129,,14.0948,,14.0952,,14.0950,33.0648,,33.0660,33.0640,,33.0659,33.0660,5.7365,,6.0653,5.9431,5.7960,,6.0629,5.9283,5.9357,250.025,263.8749,217.1001,252.615,275.1562,216.5503,216.8252,0.1626,,0.9549,0.4474,2.5965,,0.8491,,24.6728,,24.6721,,,,,,,,,,,14.0922,14.0926,0.0506,326.435,97.784,98.798,,,,,,,,,,,,
CalCOFI,2105SH,035,,2105_035d,12-May-2021 05:14:59,11-May-2021 21:14:59,33.47749,-122.54218,080.0 080.0,080.0,080.0,19.000,19.137,,14.0919,,14.0921,,14.0920,33.0645,,33.0657,33.0638,,33.0657,33.0657,5.7160,,6.0439,5.9224,5.7953,,6.0622,5.9276,5.9250,249.131,262.9403,216.4021,252.588,274.1907,216.5295,216.4658,0.1665,,0.9817,0.4603,2.5962,,0.8491,,24.6732,,24.6726,,,,,,,,,,,14.0892,14.0894,0.0538,326.427,97.429,98.781,,,,,,,,,,,,
CalCOFI,2105SH,035,,2105_035d,12-May-2021 05:15:00,11-May-2021 21:15:00,33.47748,-122.54218,080.0 080.0,080.0,080.0,20.000,20.144,,14.0884,,14.0889,,14.0887,33.0646,,33.0658,33.0638,,33.0657,33.0658,5.6939,,6.0208,5.9001,5.7943,,6.0611,5.9266,5.9134,248.165,261.9305,215.6480,252.541,273.1474,216.4932,216.0706,0.1692,,1.0002,0.4692,2.5958,,0.8491,,24.6740,,24.6733,,,,,,,,,,,14.0855,14.0860,0.0571,326.378,97.044,98.756,,,,,,,,,,,,
CalCOFI,2105SH,035,,2105_035d,12-May-2021 05:15:01,11-May-2021 21:15:01,33.47748,-122.54218,080.0 080.0,080.0,080.0,21.000,21.151,,14.0743,,14.0743,,14.0743,33.0638,,33.0650,33.0627,,33.0646,33.0648,5.7069,,6.0344,5.9132,5.8015,,6.0686,5.9338,5.9235,248.733,262.5243,216.0914,252.854,273.7608,216.7348,216.4131,0.1772,,1.0548,0.4957,2.5953,,0.8491,,24.6764,,24.6755,,,,,,,,,,,14.0713,14.0713,0.0604,326.180,97.238,98.849,,,,,,,,,,,,
CalCOFI,2105SH,035,,2105_035d,12-May-2021 05:15:05,11-May-2021 21:15:05,33.47749,-122.54216,080.0 080.0,080.0,080.0,22.000,22.158,,14.0580,,14.0587,,14.0584,33.0713,,33.0725,33.0704,,33.0723,33.0724,5.7341,,6.0628,5.9406,5.7846,,6.0511,5.9169,5.9288,249.917,263.7620,217.0157,252.115,275.0396,216.1644,216.5901,0.1756,,1.0439,0.4904,2.5933,,0.8491,,24.6855,,24.6847,,,,,,,,,,,14.0549,14.0555,0.0637,325.337,97.675,98.534,,,,,,,,,,,,
CalCOFI,2105SH,035,,2105_035d,12-May-2021 05:15:07,11-May-2021 21:15:07,33.47748,-122.54218,080.0 080.0,080.0,080.0,23.000,23.166,,14.0087,,14.0073,,14.0080,33.0987,,33.0999,33.0977,,33.0996,33.0998,5.7126,,6.0403,5.9189,5.7936,,6.0604,5.9259,5.9224,248.970,262.7720,216.2764,252.502,274.0168,216.4631,216.3698,0.1747,,1.0377,0.4874,2.5923,,0.8491,,24.7169,,24.7165,,,,,,,,,,,14.0054,14.0040,0.0670,322.373,97.226,98.602,,,,,,,,,,,,
CalCOFI,2105SH,035,,2105_035d,12-May-2021 05:15:08,11-May-2021 21:15:08,33.47748,-122.54219,080.0 080.0,080.0,080.0,24.000,24.173,,13.9580,,13.9547,,13.9564,33.1245,,33.1257,33.1243,,33.1262,33.1260,5.7179,,6.0459,5.9243,5.7950,,6.0619,5.9273,5.9258,249.196,263.0083,216.4529,252.554,274.2609,216.5033,216.4781,0.1803,,1.0758,0.5059,2.5916,,0.8491,,24.7474,,24.7479,,,,,,,,,,,13.9546,13.9513,0.0702,319.501,97.233,98.537,,,,,,,,,,,,
CalCOFI,2105SH,035,,2105_035d,12-May-2021 05:15:09,11-May-2021 21:15:09,33.47746,-122.54220,080.0 080.0,080.0,080.0,25.000,25.180,,13.9083,,13.9098,,13.9091,33.1469,,33.1481,33.1441,,33.1460,33.1471,5.7424,,6.0715,5.9490,5.7971,,6.0640,5.9294,5.9392,250.256,264.1164,217.2804,252.641,275.4057,216.5704,216.9254,0.1834,,1.0969,0.5161,2.5908,,0.8491,,24.7750,,24.7725,,,,,,,,,,,13.9048,13.9063,0.0734,316.900,97.564,98.495,,,,,,,,,,,,
CalCOFI,2105SH,035,,2105_035d,12-May-2021 05:15:11,11-May-2021 21:15:11,33.47746,-122.54220,080.0 080.0,080.0,080.0,26.000,26.187,,13.8628,,13.8613,,13.8621,33.1685,,33.1697,33.1671,,33.1690,33.1694,5.7572,,6.0870,5.9639,5.7989,,6.0659,5.9312,5.9476,250.893,264.7823,217.7777,252.713,276.0936,216.6260,217.2019,0.1833,,1.0962,0.5158,2.5900,,0.8491,,24.8011,,24.8003,,,,,,,,,,,13.8592,13.8576,0.0766,314.442,97.738,98.443,,,,,,,,,,,,
CalCOFI,2105SH,035,,2105_035d,12-May-2021 05:15:12,11-May-2021 21:15:12,33.47746,-122.54220,080.0 080.0,080.0,080.0,27.000,27.195,,13.8464,,13.8467,,13.8466,33.1754,,33.1766,33.1736,,33.1755,33.1761,5.7259,,6.0542,5.9324,5.8038,,6.0710,5.9361,5.9343,249.527,263.3543,216.7113,252.925,274.6184,216.7896,216.7505,0.1838,,1.0996,0.5175,2.5892,,0.8491,,24.8098,,24.8083,,,,,,,,,,,13.8426,13.8429,0.0797,313.641,97.178,98.501,,,,,,,,,,,,
CalCOFI,2105SH,035,,2105_035d,12-May-2021 05:15:15,11-May-2021 21:15:15,33.47746,-122.54219,080.0 080.0,080.0,080.0,28.000,28.202,,13.8442,,13.8432,,13.8437,33.1761,,33.1773,33.1756,,33.1775,33.1774,5.7155,,6.0434,5.9219,5.7994,,6.0664,5.9317,5.9268,249.073,262.8797,216.3568,252.730,274.1280,216.6391,216.4980,0.1858,,1.1131,0.5241,2.5871,,0.8491,,24.8109,,24.8107,,,,,,,,,,,13.8402,13.8393,0.0830,313.565,96.997,98.419,,,,,,,,,,,,
CalCOFI,2105SH,035,,2105_035d,12-May-2021 05:15:18,11-May-2021 21:15:18,33.47746,-122.54220,080.0 080.0,080.0,080.0,29.000,29.209,,13.8391,,13.8390,,13.8391,33.1781,,33.1793,33.1771,,33.1790,33.1792,5.7294,,6.0579,5.9359,5.7938,,6.0606,5.9261,5.9310,249.679,263.5132,216.8299,252.486,274.7825,216.4508,216.6404,0.1708,,1.0111,0.4745,2.5851,,0.8491,,24.8135,,24.8127,,,,,,,,,,,13.8350,13.8349,0.0863,313.344,97.225,98.317,,,,,,,,,,,,
CalCOFI,2105SH,035,,2105_035d,12-May-2021 05:15:19,11-May-2021 21:15:19,33.47745,-122.54221,080.0 080.0,080.0,080.0,30.000,30.216,,13.8308,,13.8310,,13.8309,33.1804,,33.1816,33.1792,,33.1811,33.1814,5.7325,,6.0611,5.9390,5.7875,,6.0541,5.9198,5.9294,249.814,263.6544,216.9353,252.210,274.9283,216.2377,216.5865,0.1694,,1.0015,0.4699,2.5844,,0.8491,,24.8170,,24.8160,,,,,,,,,,,13.8266,13.8267,0.0894,313.038,97.263,98.195,30,13.727,,,260.72,0.485,0.195,1.95,0.147,0.10,0.46,2.25
CalCOFI,2105SH,035,,2105_035d,12-May-2021 05:15:20,11-May-2021 21:15:20,33.47744,-122.54222,080.0 080.0,080.0,080.0,31.000,31.224,,13.8249,,13.8253,,13.8251,33.1820,,33.1832,33.1808,,33.1827,33.1830,5.7095,,6.0371,5.9158,5.7871,,6.0537,5.9194,5.9176,248.810,262.6048,216.1515,252.191,273.8440,216.2231,216.1873,0.1674,,0.9879,0.4633,2.5837,,0.8491,,24.8194,,24.8184,,,,,,,,,,,13.8206,13.8209,0.0926,312.836,96.861,98.178,31,13.726,,, ,,,,,,,
CalCOFI,2105SH,035,,2105_035d,12-May-2021 05:15:21,11-May-2021 21:15:21,33.47746,-122.54222,080.0 080.0,080.0,080.0,32.000,32.231,,13.8174,,13.8180,,13.8177,33.1827,,33.1839,33.1816,,33.1835,33.1837,5.6885,,6.0151,5.8946,5.7878,,6.0544,5.9201,5.9074,247.896,261.6493,215.4380,252.224,272.8569,216.2485,215.8433,0.1672,,0.9865,0.4626,2.5828,,0.8491,,24.8216,,24.8206,,,,,,,,,,,13.8129,13.8135,0.0957,312.656,96.491,98.176,,,,,,,,,,,,
CalCOFI,2105SH,035,,2105_035d,12-May-2021 05:15:24,11-May-2021 21:15:24,33.47746,-122.54222,080.0 080.0,080.0,080.0,33.000,33.238,,13.8153,,13.8165,,13.8159,33.1825,,33.1837,33.1816,,33.1835,33.1836,5.7021,,6.0294,5.9083,5.7871,,6.0537,5.9194,5.9139,248.489,262.2692,215.9009,252.192,273.4973,216.2238,216.0624,0.1702,,1.0070,0.4725,2.5807,,0.8491,,24.8218,,24.8210,,,,,,,,,,,13.8106,13.8118,0.0990,312.662,96.718,98.161,,,,,,,,,,,,
CalCOFI,2105SH,035,,2105_035d,12-May-2021 05:15:28,11-May-2021 21:15:28,33.47746,-122.54224,080.0 080.0,080.0,080.0,34.000,34.246,,13.8138,,13.8137,,13.8138,33.1824,,33.1836,33.1816,,33.1835,33.1836,5.6656,,5.9912,5.8715,5.7704,,6.0364,5.9028,5.8872,246.899,260.6070,214.6597,251.463,271.7801,215.6611,215.1604,0.1677,,0.9899,0.4643,2.5767,,0.8491,,24.8221,,24.8215,,,,,,,,,,,13.8090,13.8089,0.1023,312.659,96.096,97.872,,,,,,,,,,,,
CalCOFI,2105SH,035,,2105_035d,12-May-2021 05:15:29,11-May-2021 21:15:29,33.47745,-122.54224,080.0 080.0,080.0,080.0,35.000,35.253,,13.8014,,13.8004,,13.8009,33.1827,,33.1839,33.1815,,33.1834,33.1837,5.6960,,6.0230,5.9022,5.7626,,6.0283,5.8950,5.8986,248.223,261.9911,215.6933,251.124,273.2100,215.3995,215.5464,0.1500,,0.8679,0.4058,2.5754,,0.8491,,24.8249,,24.8242,,,,,,,,,,,13.7965,13.7955,0.1054,312.420,96.588,97.714,,,,,,,,,,,,
CalCOFI,2105SH,035,,2105_035d,12-May-2021 05:15:30,11-May-2021 21:15:30,33.47744,-122.54224,080.0 080.0,080.0,080.0,36.000,36.260,,13.7834,,13.7830,,13.7832,33.1838,,33.1850,33.1822,,33.1841,33.1846,5.6745,,6.0005,5.8805,5.7511,,6.0164,5.8835,5.8820,247.284,261.0095,214.9602,250.620,272.1959,215.0105,214.9854,0.1428,,0.8179,0.3820,2.5738,,0.8491,,24.8295,,24.8284,,,,,,,,,,,13.7783,13.7779,0.1086,312.015,96.188,97.484,,,,,,,,,,,,
CalCOFI,2105SH,035,,2105_035d,12-May-2021 05:15:31,11-May-2021 21:15:31,33.47744,-122.54224,080.0 080.0,080.0,080.0,37.000,37.268,,13.7669,,13.7665,,13.7667,33.1846,,33.1858,33.1832,,33.1851,33.1855,5.6540,,5.9791,5.8598,5.7345,,5.9992,5.8669,5.8634,246.390,260.0749,214.2623,249.898,271.2304,214.4532,214.3578,0.1441,,0.8269,0.3863,2.5718,,0.8491,,24.8335,,24.8325,,,,,,,,,,,13.7617,13.7613,0.1117,311.658,95.809,97.171,,,,,,,,,,,,
CalCOFI,2105SH,035,,2105_035d,12-May-2021 05:15:33,11-May-2021 21:15:33,33.47744,-122.54224,080.0 080.0,080.0,080.0,38.000,38.275,,13.6586,,13.6747,,13.6667,33.1835,,33.1847,33.1817,,33.1836,33.1842,5.6714,,5.9973,5.8774,5.7278,,5.9923,5.8602,5.8688,247.141,260.8600,214.8486,249.602,272.0415,214.2247,214.5367,0.1457,,0.8381,0.3916,2.5661,,0.8491,,24.8548,,24.8501,,,,,,,,,,,13.6533,13.6694,0.1148,309.651,95.890,96.876,,,,,,,,,,,,
CalCOFI,2105SH,035,,2105_035d,12-May-2021 05:15:37,11-May-2021 21:15:37,33.47744,-122.54224,080.0 080.0,080.0,080.0,39.000,39.282,,13.5826,,13.5746,,13.5786,33.1812,,33.1824,33.1782,,33.1801,33.1813,5.5958,,5.9182,5.8011,5.6575,,5.9194,5.7901,5.7956,243.844,257.4133,212.2747,246.533,268.4807,211.8558,212.0653,0.1394,,0.7941,0.3708,2.5513,,0.8491,,24.8685,,24.8679,,,,,,,,,,,13.5772,13.5692,0.1180,308.370,94.464,95.488,,,,,,,,,,,,
CalCOFI,2105SH,035,,2105_035d,12-May-2021 05:15:39,11-May-2021 21:15:39,33.47744,-122.54226,080.0 080.0,080.0,080.0,40.000,40.290,,13.3846,,13.3594,,13.3720,33.1730,,33.1742,33.1610,,33.1629,33.1686,5.5946,,5.9169,5.7999,5.6483,,5.9099,5.7809,5.7904,243.784,257.3506,212.2278,246.125,268.4159,211.5409,211.8844,0.1325,,0.7458,0.3480,2.5437,,0.8491,,24.9022,,24.8980,,,,,,,,,,,13.3791,13.3539,0.1210,305.179,94.057,94.903,,,,,,,,,,,,
CalCOFI,2105SH,035,,2105_035d,12-May-2021 05:15:40,11-May-2021 21:15:40,33.47742,-122.54226,080.0 080.0,080.0,080.0,41.000,41.297,,13.2980,,13.3171,,13.3076,33.1688,,33.1700,33.1603,,33.1622,33.1661,5.5830,,5.9048,5.7881,5.6211,,5.8817,5.7538,5.7710,243.275,256.8185,211.8305,244.937,267.8662,210.6239,211.2272,0.1347,,0.7613,0.3553,2.5361,,0.8491,,24.9163,,24.9059,,,,,,,,,,,13.2923,13.3114,0.1241,303.851,93.693,94.364,,,,,,,,,,,,
CalCOFI,2105SH,035,,2105_035d,12-May-2021 05:15:41,11-May-2021 21:15:41,33.47742,-122.54226,080.0 080.0,080.0,080.0,42.000,42.304,,13.1296,,13.1405,,13.1351,33.1519,,33.1531,33.1406,,33.1425,33.1478,5.5130,,5.8316,5.7175,5.5825,,5.8418,5.7152,5.7164,240.220,253.6248,209.4455,243.253,264.5668,209.3241,209.3848,0.1336,,0.7535,0.3516,2.5275,,0.8491,,24.9369,,24.9260,,,,,,,,,,,13.1239,13.1348,0.1272,301.906,92.189,93.366,,,,,,,,,,,,
CalCOFI,2105SH,035,,2105_035d,12-May-2021 05:15:43,11-May-2021 21:15:43,33.47742,-122.54226,080.0 080.0,080.0,080.0,43.000,43.312,,12.9927,,12.9907,,12.9917,33.1423,,33.1435,33.1298,,33.1317,33.1376,5.4815,,5.7987,5.6857,5.5608,,5.8193,5.6936,5.6897,238.845,252.1874,208.3721,242.299,263.0818,208.5877,208.4799,0.1365,,0.7739,0.3612,2.5153,,0.8491,,24.9565,,24.9472,,,,,,,,,,,12.9869,12.9849,0.1302,300.059,91.398,92.708,,,,,,,,,,,,
CalCOFI,2105SH,035,,2105_035d,12-May-2021 05:15:46,11-May-2021 21:15:46,33.47742,-122.54226,080.0 080.0,080.0,080.0,44.000,44.319,,12.4574,,12.4586,,12.4580,33.0939,,33.0951,33.0791,,33.0810,33.0881,5.5322,,5.8517,5.7369,5.5966,,5.8564,5.7293,5.7331,241.035,254.4768,210.0818,243.847,265.4470,209.7826,209.9322,0.1359,,0.7697,0.3592,2.4955,,0.8491,,25.0232,,25.0115,,,,,,,,,,,12.4516,12.4528,0.1332,293.692,91.195,92.252,,,,,,,,,,,,
CalCOFI,2105SH,035,,2105_035d,12-May-2021 05:15:48,11-May-2021 21:15:48,33.47742,-122.54228,080.0 080.0,080.0,080.0,45.000,45.326,,12.2484,,12.2501,,12.2493,33.0797,,33.0809,33.0686,,33.0705,33.0757,5.4990,,5.8170,5.7034,5.6105,,5.8708,5.7432,5.7233,239.583,252.9589,208.9482,244.442,263.8788,210.2419,209.5951,0.1316,,0.7395,0.3450,2.4758,,0.8491,,25.0522,,25.0432,,,,,,,,,,,12.2426,12.2442,0.1361,290.942,90.246,92.072,,,,,,,,,,,,
CalCOFI,2105SH,035,,2105_035d,12-May-2021 05:15:50,11-May-2021 21:15:50,33.47742,-122.54228,080.0 080.0,080.0,080.0,46.000,46.334,,12.2092,,12.2108,,12.2100,33.1077,,33.1089,33.1062,,33.1081,33.1085,5.5422,,5.8621,5.7470,5.6144,,5.8748,5.7471,5.7471,241.459,254.9200,210.4128,244.604,265.9049,210.3669,210.3899,0.1228,,0.6775,0.3160,2.4668,,0.8491,,25.0814,,25.0799,,,,,,,,,,,12.2032,12.2048,0.1390,288.187,90.897,92.082,,,,,,,,,,,,
CalCOFI,2105SH,035,,2105_035d,12-May-2021 05:15:51,11-May-2021 21:15:51,33.47742,-122.54228,080.0 080.0,080.0,080.0,47.000,47.341,,12.3253,,12.3302,,12.3278,33.1737,,33.1749,33.1779,,33.1798,33.1774,5.5226,,5.8416,5.7272,5.5878,,5.8472,5.7205,5.7239,240.598,254.0199,209.7406,243.440,264.9750,209.4684,209.6045,0.1198,,0.6563,0.3061,2.4609,,0.8491,,25.1105,,25.1128,,,,,,,,,,,12.3192,12.3240,0.1419,285.457,90.833,91.918,,,,,,,,,,,,
CalCOFI,2105SH,035,,2105_035d,12-May-2021 05:15:52,11-May-2021 21:15:52,33.47742,-122.54230,080.0 080.0,080.0,080.0,48.000,48.348,,12.3683,,12.3691,,12.3687,33.2132,,33.2144,33.2117,,33.2136,33.2140,5.4994,,5.8174,5.7038,5.5759,,5.8349,5.7087,5.7063,239.581,252.9568,208.9467,242.914,263.8766,209.0624,209.0046,0.1180,,0.6436,0.3001,2.4548,,0.8491,,25.1329,,25.1316,,,,,,,,,,,12.3620,12.3629,0.1448,283.351,90.554,91.815,,,,,,,,,,,,
CalCOFI,2105SH,035,,2105_035d,12-May-2021 05:15:55,11-May-2021 21:15:55,33.47742,-122.54230,080.0 080.0,080.0,080.0,49.000,49.356,,12.3614,,12.3629,,12.3622,33.2338,,33.2350,33.2301,,33.2320,33.2335,5.4857,,5.8030,5.6900,5.5490,,5.8071,5.6818,5.6859,238.980,252.3285,208.4775,241.737,263.2276,208.1540,208.3158,0.1100,,0.5867,0.2737,2.4443,,0.8491,,25.1503,,25.1471,,,,,,,,,,,12.3549,12.3565,0.1477,281.729,90.327,91.370,,,,,,,,,,,,
CalCOFI,2105SH,035,,2105_035d,12-May-2021 05:15:57,11-May-2021 21:15:57,33.47740,-122.54230,080.0 080.0,080.0,080.0,50.000,50.363,,12.3389,,12.3393,,12.3391,33.2417,,33.2429,33.2394,,33.2413,33.2421,5.4863,,5.8037,5.6906,5.5410,,5.7988,5.6738,5.6822,239.006,252.3557,208.4978,241.389,263.2556,207.8853,208.1916,0.1039,,0.5431,0.2535,2.4394,,0.8491,,25.1607,,25.1588,,,,,,,,,,,12.3323,12.3328,0.1505,280.757,90.301,91.200,,,,,,,,,,,,
CalCOFI,2105SH,035,,2105_035d,12-May-2021 05:15:59,11-May-2021 21:15:59,33.47740,-122.54230,080.0 080.0,080.0,080.0,51.000,51.371,,12.3371,,12.3374,,12.3373,33.2455,,33.2467,33.2433,,33.2452,33.2460,5.4671,,5.7836,5.6712,5.5388,,5.7965,5.6716,5.6714,238.166,251.4775,207.8420,241.290,262.3484,207.8089,207.8255,0.1050,,0.5510,0.2572,2.4360,,0.8491,,25.1640,,25.1623,,,,,,,,,,,12.3304,12.3308,0.1533,280.471,89.982,91.161,51,12.365,,,249.57,0.354,0.220,6.43,0.384,0.12,0.74,4.57
CalCOFI,2105SH,035,,2105_035d,12-May-2021 05:16:01,11-May-2021 21:16:01,33.47740,-122.54232,080.0 080.0,080.0,080.0,52.000,52.378,,12.3348,,12.3353,,12.3351,33.2496,,33.2508,33.2478,,33.2497,33.2503,5.4555,,5.7715,5.6595,5.5309,,5.7883,5.6637,5.6616,237.659,250.9475,207.4462,240.948,261.8009,207.5450,207.4956,0.1020,,0.5295,0.2473,2.4312,,0.8491,,25.1677,,25.1662,,,,,,,,,,,12.3280,12.3285,0.1561,280.145,89.789,91.031,,,,,,,,,,,,
CalCOFI,2105SH,035,,2105_035d,12-May-2021 05:16:03,11-May-2021 21:16:03,33.47740,-122.54232,080.0 080.0,080.0,080.0,53.000,53.385,,12.3291,,12.3297,,12.3294,33.2502,,33.2514,33.2485,,33.2504,33.2509,5.4403,,5.7556,5.6441,5.5255,,5.7827,5.6584,5.6513,237.000,250.2586,206.9317,240.710,261.0892,207.3613,207.1465,0.1022,,0.5310,0.2479,2.4277,,0.8491,,25.1693,,25.1678,,,,,,,,,,,12.3222,12.3228,0.1590,280.020,89.530,90.931,,,,,,,,,,,,
CalCOFI,2105SH,035,,2105_035d,12-May-2021 05:16:05,11-May-2021 21:16:05,33.47740,-122.54233,080.0 080.0,080.0,080.0,54.000,54.393,,12.3192,,12.3198,,12.3195,33.2516,,33.2528,33.2500,,33.2519,33.2524,5.4282,,5.7429,5.6319,5.5187,,5.7757,5.6516,5.6418,236.472,249.7066,206.5195,240.414,260.5189,207.1328,206.8262,0.1031,,0.5374,0.2509,2.4242,,0.8491,,25.1723,,25.1709,,,,,,,,,,,12.3121,12.3127,0.1618,279.762,89.313,90.802,,,,,,,,,,,,
CalCOFI,2105SH,035,,2105_035d,12-May-2021 05:16:07,11-May-2021 21:16:07,33.47740,-122.54234,080.0 080.0,080.0,080.0,55.000,55.400,,12.3101,,12.3094,,12.3098,33.2518,,33.2530,33.2498,,33.2517,33.2524,5.4358,,5.7509,5.6396,5.4932,,5.7493,5.6261,5.6329,236.800,250.0495,206.7756,239.304,260.8732,206.2760,206.5258,0.1020,,0.5295,0.2473,2.4187,,0.8491,,25.1742,,25.1728,,,,,,,,,,,12.3029,12.3022,0.1646,279.603,89.420,90.363,,,,,,,,,,,,